Main page
METAR-TAF:

METAR-TAF

Airports :

Atlantic Municipal Airport

Atlantic, Iowa, United States

latitude: 41-24N, longitude: 095-03W, elevation: 1181 ft

Current weather observation

The report was made 29 minutes ago, at 04:15 UTC
Calm wind
Temperature 70°F
Humidity 100%
Pressure 29.94 in. Hg
Visibility: 7 miles
light rain

METAR: KAIO 190415Z AUTO 00000KT 7SM -RA 21/21 A2994 RMK AO2

Time: 23:44 (04:44 UTC)


TAF: missing

Weather observations and forecasts of more than 4000 airports (METAR and TAF reports).

The available stations are represented by yellow and red dots on the map.

Hover mouse over dot to see the name of the station.

Then click to see weather observations and forecasts.

To change the map : click on the green buttons with a black cross to zoom in, on the green button with a dash to zoom out, or on the green arrows for adjacent maps.


METAR-TAF: